Location: Bodest
(46.3000°N, 22.5667°E)
Time: 13:52:39
(UTC+00:00)

Cosmos 1844 Rocket - Pass Details

Date: 03 June 2022
Orbit: 826 x 843 km, 71.0° (Epoch: 28 June)

Event Time Altitude Azimuth Distance (km) Brightness Sun altitude
Rises 20:01:29 0° 329° (NNW) 3,379 7.8 -13.7°
Reaches altitude 10° 20:03:58 10° 325° (NW) 2,440 6.6 -14.0°
Maximum altitude 20:09:23 53° 250° (WSW) 1,005 3.2 -14.5°
Enters shadow 20:13:27 17° 179° (S) 1,950 4.1 -14.9°
